When you browse on this site, cookies collect data to enhance your experience and personalize the content and advertising you see.
Visit our Privacy Policy to learn more. By continuing to use the site, you agree to this use of cookies and data.
  • In Deutschland
  • Länderverzeichnis
  • Für 7 Tage
  • Wassertemperatur
  • Wetterkarte
  • Widgets
  • user-avatar
    Anmelden

    Stündliche Wetter Luanda

    Heute, 18 Oktober, Freitag

    Zeit Temperatur Niederschläge Wind Luftdruck Luftfeuchtigkeit
    00:00 +27°C° 0 mm 3 m/S 754 mmHg 86%
    01:00 +27°C° 0 mm 3 m/S 754 mmHg 87%
    02:00 +26°C° 0 mm 3 m/S 753 mmHg 88%
    03:00 +26°C° 0 mm 3 m/S 753 mmHg 88%
    04:00 +26°C° 0 mm 3 m/S 753 mmHg 89%
    05:00 +26°C° 0 mm 3 m/S 753 mmHg 86%
    06:00 +27°C° 0 mm 3 m/S 754 mmHg 83%
    07:00 +27°C° 0 mm 3 m/S 754 mmHg 80%
    08:00 +28°C° 0 mm 2 m/S 754 mmHg 74%
    09:00 +30°C° 0 mm 1 m/S 754 mmHg 68%
    10:00 +31°C° 0 mm 1 m/S 754 mmHg 62%
    11:00 +32°C° 0 mm 2 m/S 753 mmHg 59%
    12:00 +34°C° 0 mm 3 m/S 753 mmHg 56%
    13:00 +34°C° 0 mm 4 m/S 752 mmHg 52%
    14:00 +34°C° 0 mm 4 m/S 751 mmHg 55%
    15:00 +33°C° 0 mm 5 m/S 751 mmHg 57%
    16:00 +33°C° 0 mm 6 m/S 750 mmHg 59%
    17:00 +30°C° 0 mm 5 m/S 751 mmHg 65%
    18:00 +29°C° 0 mm 5 m/S 752 mmHg 70%
    19:00 +28°C° 0 mm 5 m/S 752 mmHg 76%
    20:00 +28°C° 0 mm 4 m/S 753 mmHg 78%
    21:00 +27°C° 0 mm 4 m/S 753 mmHg 79%
    22:00 +27°C° 0 mm 3 m/S 754 mmHg 81%
    23:00 +27°C° 0 mm 3 m/S 754 mmHg 82%

    Morgen, 19 Oktober, Samstag

    Zeit Temperatur Niederschläge Wind Luftdruck Luftfeuchtigkeit
    00:00 +27°C° 0 mm 3 m/S 753 mmHg 84%
    01:00 +27°C° 0 mm 3 m/S 753 mmHg 85%
    02:00 +26°C° 0 mm 3 m/S 753 mmHg 85%
    03:00 +26°C° 0 mm 3 m/S 752 mmHg 84%
    04:00 +26°C° 0 mm 3 m/S 752 mmHg 84%
    05:00 +27°C° 0.1 mm 3 m/S 753 mmHg 82%
    06:00 +27°C° 0.1 mm 3 m/S 753 mmHg 80%
    07:00 +27°C° 0.1 mm 3 m/S 754 mmHg 78%
    08:00 +28°C° 0 mm 3 m/S 754 mmHg 73%
    09:00 +29°C° 0 mm 3 m/S 754 mmHg 67%
    10:00 +30°C° 0 mm 3 m/S 754 mmHg 62%
    11:00 +32°C° 0 mm 4 m/S 753 mmHg 59%
    12:00 +33°C° 0 mm 4 m/S 753 mmHg 55%
    13:00 +34°C° 0 mm 5 m/S 752 mmHg 52%
    14:00 +33°C° 0 mm 5 m/S 752 mmHg 54%
    15:00 +33°C° 0 mm 5 m/S 751 mmHg 57%
    16:00 +32°C° 0 mm 6 m/S 751 mmHg 59%
    17:00 +30°C° 0 mm 5 m/S 751 mmHg 64%
    18:00 +29°C° 0 mm 5 m/S 752 mmHg 69%
    19:00 +28°C° 0 mm 4 m/S 752 mmHg 73%
    20:00 +27°C° 0 mm 4 m/S 753 mmHg 75%
    21:00 +27°C° 0 mm 3 m/S 753 mmHg 77%
    22:00 +27°C° 0 mm 3 m/S 754 mmHg 79%
    23:00 +27°C° 0 mm 2 m/S 753 mmHg 80%

    übermorgen, 20 Oktober, Sonntag

    Zeit Temperatur Niederschläge Wind Luftdruck Luftfeuchtigkeit
    00:00 +26°C° 0 mm 2 m/S 753 mmHg 81%
    01:00 +26°C° 0 mm 2 m/S 753 mmHg 82%
    02:00 +26°C° 0 mm 2 m/S 753 mmHg 82%
    03:00 +26°C° 0 mm 3 m/S 753 mmHg 83%
    04:00 +26°C° 0 mm 4 m/S 753 mmHg 83%
    05:00 +26°C° 0 mm 3 m/S 753 mmHg 81%
    06:00 +26°C° 0 mm 3 m/S 754 mmHg 78%
    07:00 +27°C° 0 mm 3 m/S 754 mmHg 76%
    08:00 +28°C° 0 mm 2 m/S 754 mmHg 69%
    09:00 +30°C° 0 mm 2 m/S 754 mmHg 61%
    10:00 +32°C° 0 mm 1 m/S 754 mmHg 54%
    11:00 +32°C° 0 mm 2 m/S 753 mmHg 54%
    12:00 +33°C° 0 mm 3 m/S 752 mmHg 54%
    13:00 +33°C° 0 mm 4 m/S 752 mmHg 54%
    14:00 +33°C° 0 mm 4 m/S 751 mmHg 55%
    15:00 +32°C° 0 mm 5 m/S 751 mmHg 57%
    16:00 +32°C° 0 mm 5 m/S 750 mmHg 59%
    17:00 +30°C° 0 mm 5 m/S 751 mmHg 64%
    18:00 +29°C° 0 mm 5 m/S 752 mmHg 69%
    19:00 +28°C° 0 mm 5 m/S 752 mmHg 74%
    20:00 +28°C° 0 mm 4 m/S 753 mmHg 75%
    21:00 +27°C° 0 mm 4 m/S 753 mmHg 76%
    22:00 +27°C° 0 mm 3 m/S 754 mmHg 77%
    23:00 +27°C° 0 mm 3 m/S 754 mmHg 79%

    21 Oktober, Montag

    Zeit Temperatur Niederschläge Wind Luftdruck Luftfeuchtigkeit
    00:00 +27°C° 0 mm 3 m/S 753 mmHg 80%
    01:00 +27°C° 0 mm 3 m/S 753 mmHg 81%
    02:00 +27°C° 0 mm 3 m/S 753 mmHg 81%
    03:00 +27°C° 0 mm 3 m/S 753 mmHg 81%
    04:00 +26°C° 0 mm 4 m/S 753 mmHg 80%
    05:00 +27°C° 0 mm 3 m/S 753 mmHg 78%
    06:00 +27°C° 0 mm 3 m/S 754 mmHg 77%
    07:00 +27°C° 0 mm 3 m/S 754 mmHg 75%
    08:00 +29°C° 0 mm 2 m/S 754 mmHg 68%
    09:00 +30°C° 0 mm 2 m/S 754 mmHg 62%
    10:00 +32°C° 0 mm 2 m/S 754 mmHg 55%
    11:00 +33°C° 0 mm 3 m/S 753 mmHg 55%
    12:00 +33°C° 0 mm 4 m/S 753 mmHg 54%
    13:00 +33°C° 0 mm 5 m/S 752 mmHg 54%
    14:00 +33°C° 0 mm 5 m/S 751 mmHg 54%
    15:00 +33°C° 0 mm 5 m/S 751 mmHg 55%
    16:00 +33°C° 0 mm 5 m/S 750 mmHg 55%
    17:00 +30°C° 0 mm 4 m/S 751 mmHg 61%
    18:00 +29°C° 0 mm 4 m/S 751 mmHg 67%
    19:00 +28°C° 0 mm 4 m/S 752 mmHg 73%
    20:00 +28°C° 0 mm 4 m/S 752 mmHg 74%
    21:00 +27°C° 0 mm 3 m/S 753 mmHg 76%
    22:00 +27°C° 0 mm 3 m/S 753 mmHg 77%
    23:00 +27°C° 0 mm 3 m/S 753 mmHg 78%

    22 Oktober, Dienstag

    Zeit Temperatur Niederschläge Wind Luftdruck Luftfeuchtigkeit
    00:00 +27°C° 0 mm 3 m/S 753 mmHg 80%
    01:00 +26°C° 0 mm 3 m/S 752 mmHg 81%
    02:00 +26°C° 0 mm 3 m/S 752 mmHg 82%
    03:00 +26°C° 0 mm 3 m/S 752 mmHg 83%
    04:00 +26°C° 0 mm 3 m/S 752 mmHg 84%
    05:00 +26°C° 0.1 mm 3 m/S 753 mmHg 82%
    06:00 +27°C° 0.1 mm 3 m/S 753 mmHg 80%
    07:00 +27°C° 0.1 mm 3 m/S 754 mmHg 77%
    08:00 +28°C° 0.1 mm 3 m/S 754 mmHg 72%
    09:00 +29°C° 0.1 mm 3 m/S 754 mmHg 66%
    10:00 +30°C° 0.1 mm 3 m/S 754 mmHg 60%
    11:00 +31°C° 0 mm 3 m/S 753 mmHg 58%
    12:00 +32°C° 0 mm 4 m/S 753 mmHg 57%
    13:00 +33°C° 0 mm 5 m/S 752 mmHg 55%
    14:00 +32°C° 0 mm 5 m/S 751 mmHg 57%
    15:00 +32°C° 0 mm 5 m/S 751 mmHg 59%
    16:00 +30°C° 0 mm 5 m/S 750 mmHg 61%
    17:00 +29°C° 0 mm 5 m/S 751 mmHg 66%
    18:00 +28°C° 0 mm 4 m/S 751 mmHg 71%
    19:00 +27°C° 0 mm 4 m/S 752 mmHg 76%
    20:00 +27°C° 0 mm 4 m/S 752 mmHg 77%
    21:00 +27°C° 0 mm 4 m/S 753 mmHg 78%
    22:00 +27°C° 0 mm 4 m/S 753 mmHg 79%
    23:00 +27°C° 0 mm 4 m/S 753 mmHg 80%

    23 Oktober, Mittwoch

    Zeit Temperatur Niederschläge Wind Luftdruck Luftfeuchtigkeit
    00:00 +26°C° 0 mm 4 m/S 752 mmHg 81%
    01:00 +26°C° 0 mm 4 m/S 752 mmHg 81%
    02:00 +26°C° 0 mm 3 m/S 752 mmHg 80%
    03:00 +26°C° 0 mm 3 m/S 752 mmHg 78%
    04:00 +26°C° 0 mm 3 m/S 751 mmHg 77%
    05:00 +27°C° 0 mm 3 m/S 752 mmHg 76%
    06:00 +27°C° 0 mm 3 m/S 752 mmHg 75%
    07:00 +27°C° 0 mm 3 m/S 753 mmHg 74%
    08:00 +29°C° 0 mm 2 m/S 753 mmHg 66%
    09:00 +30°C° 0 mm 1 m/S 753 mmHg 59%
    10:00 +30°C° 0 mm 0 m/S 753 mmHg 52%
    11:00 +34°C° 0 mm 2 m/S 752 mmHg 49%
    12:00 +35°C° 0 mm 3 m/S 751 mmHg 46%
    13:00 +36°C° 0 mm 4 m/S 751 mmHg 43%
    14:00 +35°C° 0 mm 5 m/S 750 mmHg 47%
    15:00 +34°C° 0 mm 5 m/S 750 mmHg 52%
    16:00 +32°C° 0 mm 6 m/S 749 mmHg 56%
    17:00 +30°C° 0 mm 6 m/S 750 mmHg 63%
    18:00 +29°C° 0 mm 6 m/S 750 mmHg 69%
    19:00 +28°C° 0 mm 5 m/S 751 mmHg 75%
    20:00 +28°C° 0 mm 5 m/S 751 mmHg 76%
    21:00 +27°C° 0 mm 5 m/S 752 mmHg 76%
    22:00 +27°C° 0 mm 4 m/S 753 mmHg 76%
    23:00 +27°C° 0 mm 4 m/S 752 mmHg 76%
    Mehr zeigen